Regional Weather Roundup
Issued by NWS

Home | Current Version | Previous Version | Graphics & Text | Print | Product List | Glossary On
Versions: 1 2 3 4 5 6 7 8 9 10 11 12 13 14 15 16 17 18 19 20 21 22 23 24 25 26 27 28 29 30 31 32 33 34 35 36 37 38 39 40 41 42 43 44 45 46 47 48 49 50
000
ASUS43 KFSD 281610
RWRSD

WEATHER ROUNDUP FOR SOUTH DAKOTA
NATIONAL WEATHER SERVICE SIOUX FALLS SD
1100 AM CDT THU JUL 28 2016

NOTE: "FAIR" INDICATES FEW OR NO CLOUDS BELOW 12,000 FEET WITH NO
SIGNIFICANT WEATHER AND/OR OBSTRUCTIONS TO VISIBILITY.


SDZ001>005-009-010-012>017-281700-
NORTHWEST AND NORTH CENTRAL SOUTH DAKOTA

CITY           SKY/WX    TMP DP  RH WIND       PRES   REMARKS
BUFFALO          N/A     67  62  84 S9        30.09R
FAITH            N/A     71  55  56 S10       30.12R
MOBRIDGE       PTSUNNY   70  56  61 E7        30.11S
$$

SDZ012>016-024>037-041>051-057-063-072>074-281700-
SOUTHWEST AND SOUTH CENTRAL SOUTH DAKOTA

CITY           SKY/WX    TMP DP  RH WIND       PRES   REMARKS
RAPID CTY ARPT PTSUNNY   66  60  81 N5        30.17R
PIERRE         MOSUNNY   74  55  51 SE12      30.10S
CUSTER         RAIN      55  51  86 W17G25    30.29S FOG
ELLSWORTH AFB  CLOUDY    66  61  84 VRB1      30.16
PHILIP         MOSUNNY   73  64  73 E8        30.09F
PINE RIDGE     CLOUDY    65  60  84 NW12      30.20R
WINNER         FAIR      73  62  68 E10       30.10F
$$

SDZ004>011-016>023-039-040-281700-
NORTHEAST SOUTH DAKOTA

CITY           SKY/WX    TMP DP  RH WIND       PRES   REMARKS
ABERDEEN       CLOUDY    66  60  81 N6        30.10F
WATERTOWN      PTSUNNY   73  60  63 NE9       30.10S
BROOKINGS      MOSUNNY   69  61  75 MISG      30.09S
SISSETON         N/A     72  61  68 E3        30.09S
$$

SDZ017-020-022-023-036>040-048>070-281700-
SOUTHEAST SOUTH DAKOTA

CITY           SKY/WX    TMP DP  RH WIND       PRES   REMARKS
SIOUX FALLS    PTSUNNY   70  63  78 NE9       30.08S
HURON          SUNNY     74  61  63 N12       30.08F
CHAMBERLAIN    PTSUNNY   77  61  57 E7        30.09F
MITCHELL       CLOUDY    74  59  59 VRB7      30.08F
YANKTON        MOSUNNY   73  57  56 N7        30.06S
$$

ABBREVIATIONS USED IN REMARKS
   TC - TEMPERATURE IN CELSIUS
  WCI - WIND CHILL INDEX
   HX - HEAT INDEX
  VSB - VISIBILITY





USA.gov is the U.S. government's official web portal to all federal, state and local government web resources and services.